Powrót do katalogu

CZ-6A DEB

AktywnyPO
NORAD 61474·DEBRIS·🇨🇳 China

Wystrzelony Aug 6, 2024 z Taiyuan Satellite Launch Center

Loading…

Następne Przeloty (najbliższe 24 godziny)

TLE

ŚwieżeSource: Space-Track

Epoka: Sep 14, 2026, 16:37 UTC

1 61474U 24140AAG 26257.69241423  .00002801  00000-0  65484-3 0  9997
2 61474  88.8186 243.6249 0121963  24.4639 336.2287 14.49911361107089

Śledź CZ-6A DEB w czasie rzeczywistym z AllMySat

Download on the App Store